Tracking 20712 objects as of 29-May-2020
HD Live streaming from Space Station
objects crossing your sky now

CZ-2F DEB


CZ-2F DEB is no longer on orbit


NORAD ID: 41817
Int'l Code: 2016-061F
Perigee: N/A
Apogee: N/A
Inclination: N/A
Period: N/A
Semi major axis: N/A
RCS: N/A
Launch date: October 16, 2016
Source: People's Republic of China (PRC)
Launch site: Jiuquan Satellite Launch Center, China (JSC)
Decay date: 2016-10-20

Note: This is SATELLITE DEBRIS
aabbcc
Your satellite tracking list
Your tracking list is empty




NASA's NSSDC Master Catalog

Two Line Element Set (TLE):
1 41817U 16061F   16294.19731319  .06768513  80328-5  26330-2 0  9999
2 41817  42.8630 349.3191 0173985 157.9068 216.5387 15.96597643   417
Source of the keplerian elements: AFSPC